Location: Unspecified
(17.6330°N, 0.0000°E)
Time: 20:16:39
(UTC+00:00)

S-56A Canister/Altair - Pass Details

Date: 28 June 2019
Orbit: 632 x 2500 km, 38.9° (Epoch: 15 July)

Event Time Altitude Azimuth Distance (km) Brightness Sun altitude
Rises 09:57:53 0° 209° (SSW) 6,020 11.9 60.2°
Reaches altitude 10° 10:02:06 10° 202° (SSW) 5,109 11.6 61.1°
Maximum altitude 10:15:50 42° 137° (SE) 3,144 11.5 64.3°
Drops below altitude 10° 10:27:57 10° 72° (ENE) 4,561 12.0 67.0°
Sets 10:31:24 0° 66° (ENE) 5,344 12.1 67.8°
